GSE Systems Pre-Tax Profit Margin 2010-2024 | GVP

GSE Systems pre-tax profit margin from 2010 to 2024. Pre-tax profit margin can be defined as earnings before taxes as a portion of total revenue.
GSE Systems Pre-Tax Profit Margin Historical Data
Date TTM Revenue TTM Pre-Tax Income Pre-Tax Margin
2024-03-31 $0.05B $-0.01B -15.56%
2023-12-31 $0.05B $-0.01B -17.78%
2023-09-30 $0.05B $-0.01B -15.22%
2023-06-30 $0.05B $-0.01B -30.43%
2023-03-31 $0.05B $-0.01B -29.79%
2022-12-31 $0.05B $-0.01B -29.17%
2022-09-30 $0.05B $-0.02B -29.41%
2022-06-30 $0.05B $0.01B 11.11%
2022-03-31 $0.06B $0.01B 18.18%
2021-12-31 $0.06B $0.01B 19.64%
2021-09-30 $0.06B $0.01B 21.82%
2021-06-30 $0.05B $-0.00B -1.89%
2021-03-31 $0.05B $-0.01B -11.32%
2020-12-31 $0.06B $-0.01B -17.24%
2020-09-30 $0.06B $-0.01B -14.52%
2020-06-30 $0.07B $-0.01B -13.04%
2020-03-31 $0.08B $-0.01B -8.97%
2019-12-31 $0.08B $-0.01B -8.54%
2019-09-30 $0.09B $-0.01B -5.68%
2019-06-30 $0.09B $-0.00B -4.44%
2019-03-31 $0.09B $-0.00B -3.26%
2018-12-31 $0.09B $0.00B 2.15%
2018-09-30 $0.09B 0 0.00%
2018-06-30 $0.09B $-0.00B -1.18%
2018-03-31 $0.08B $-0.00B -1.30%
2017-12-31 $0.07B 0 0.00%
2017-09-30 $0.06B $0.00B 1.64%
2017-06-30 $0.06B $0.00B 3.33%
2017-03-31 $0.06B $0.00B 1.82%
2016-12-31 $0.05B $0.00B 1.92%
2016-09-30 $0.05B $0.00B 1.89%
2016-06-30 $0.05B $-0.00B -5.56%
2016-03-31 $0.06B $-0.00B -7.14%
2015-12-31 $0.06B $-0.00B -7.02%
2015-09-30 $0.06B $-0.01B -10.71%
2015-06-30 $0.05B $-0.00B -8.16%
2015-03-31 $0.04B $-0.01B -11.63%
2014-12-31 $0.04B $-0.01B -18.42%
2014-09-30 $0.04B $-0.01B -16.22%
2014-06-30 $0.04B $-0.01B -12.20%
2014-03-31 $0.04B $-0.01B -25.00%
2013-12-31 $0.05B $-0.01B -21.28%
2013-09-30 $0.05B $-0.01B -22.92%
2013-06-30 $0.05B $-0.01B -18.37%
2013-03-31 $0.05B $-0.00B -1.96%
2012-12-31 $0.05B $0.00B 1.92%
2012-09-30 $0.05B $0.00B 5.56%
2012-06-30 $0.05B $0.00B 5.56%
2012-03-31 $0.05B $0.00B 5.77%
2011-12-31 $0.05B $0.00B 3.92%
2011-09-30 $0.05B $-0.00B -2.08%
2011-06-30 $0.05B $-0.00B -4.26%
2011-03-31 $0.05B $-0.00B -4.17%
2010-12-31 $0.05B $-0.00B -4.26%
2010-09-30 $0.05B $-0.00B -4.35%
2010-06-30 $0.04B $-0.00B -2.27%
2010-03-31 $0.04B 0 0.00%
2009-12-31 $0.04B 0 0.00%
Sector Industry Market Cap Revenue
Computer and Technology Computer Software $0.011B $0.045B
GSE Systems, Inc. develops and delivers business and technology solutions by applying process control and simulation software, systems and services to the pharmaceutical and chemical research & development, energy, process and manufacturing industries worldwide. The company's products are used in the following industries: specialty chemical, food and beverage, petroleum refining, pharmaceutical, fossil and nuclear power generation, metals and water treatment. (PRESS RELEASE)
Stock Name Country Market Cap PE Ratio
Microsoft (MSFT) United States $3248.735B 37.85
Oracle (ORCL) United States $381.852B 31.00
Adobe (ADBE) United States $244.313B 39.53
Salesforce (CRM) United States $239.953B 35.73
Intuit (INTU) United States $177.948B 55.45
Synopsys (SNPS) United States $86.279B 59.46
Cadence Design Systems (CDNS) United States $76.265B 72.53
Autodesk (ADSK) United States $52.250B 47.63
Dassault Systemes SA (DASTY) France $50.191B 32.61
MicroStrategy (MSTR) United States $31.545B 0.00
ANSYS (ANSS) United States $27.459B 50.81
PTC (PTC) United States $21.058B 55.85
SS&C Technologies Holdings (SSNC) United States $16.459B 15.59
Manhattan Associates (MANH) United States $13.459B 71.43
Descartes Systems Group (DSGX) Canada $8.488B 71.01
Open Text (OTEX) Canada $8.286B 8.50
Trend Micro (TMICY) Japan $6.411B 46.43
CommVault Systems (CVLT) United States $5.299B 85.87
Pegasystems (PEGA) United States $5.074B 44.86
ACI Worldwide (ACIW) United States $4.369B 20.93
Blackbaud (BLKB) United States $3.993B 34.38
Progress Software (PRGS) United States $2.376B 15.26
Sapiens (SPNS) Israel $2.193B 29.91
Verint Systems (VRNT) United States $2.091B 19.58
BlackBerry (BB) Canada $1.429B 0.00
PROS Holdings (PRO) United States $1.109B 0.00
Simulations Plus (SLP) United States $0.791B 59.01
Rand Worldwide (RWWI) United States $0.663B 0.00
Magic Software Enterprises (MGIC) Israel $0.544B 11.54
Canaan (CAN) China $0.339B 0.00
American Software (AMSWA) United States $0.320B 27.49
OptimizeRx (OPRX) United States $0.183B 0.00
Rigetti Computing (RGTI) United States $0.179B 0.00
Neonode (NEON) Sweden $0.048B 0.00
Icad Inc (ICAD) United States $0.035B 0.00
NetSol Technologies (NTWK) United States $0.032B 0.00
Wetouch Technology (WETH) $0.026B 0.00
Smith Micro Software (SMSI) United States $0.022B 0.00
Hanryu Holdings (HRYU) South Korea $0.014B 0.00
SAP SE (SAP) Germany $0.000B 50.44